Location: Dover
(48.8500°N, 53.9833°W)
Time: 07:23:56
(UTC+00:00)

USA 215 - Pass Details

Date: 14 November 2025
Orbit: 1101 x 1106 km, 123.0° (Epoch: 10 December)

Event Time Altitude Azimuth Distance (km) Brightness Sun altitude
Rises 20:46:05 0° 136° (SE) 3,912 5.9 -8.3°
Reaches altitude 10° 20:48:36 10° 139° (SE) 2,957 5.3 -8.7°
Maximum altitude 20:55:04 63° 220° (SW) 1,223 3.8 -9.8°
Drops below altitude 10° 21:01:35 10° 301° (WNW) 2,973 6.2 -10.8°
Sets 21:04:07 0° 305° (NW) 3,934 6.8 -11.2°
